Location: Unspecified
(35.7250°N, 0.0000°E)
Time: 21:26:03
(UTC+00:00)

SR - Pass Details

Date: 28 June 2019
Orbit: 574 x 881 km, 66.7° (Epoch: 22 October)

Event Time Altitude Azimuth Distance (km) Brightness Sun altitude
Exits shadow 01:38:05 44° 66° (ENE) 800 ? -26.9°
Drops below altitude 10° 01:41:16 10° 36° (NE) 1,903 ? -26.6°
Sets 01:43:33 0° 32° (NNE) 2,827 ? -26.4°
